Regional Weather Roundup
Issued by NWS

Home | Current Version | Previous Version | Graphics & Text | Print | Product List | Glossary On
Versions: 1 2 3 4 5 6 7 8 9 10 11 12 13 14 15 16 17 18 19 20 21 22 23 24 25 26 27 28
000
ASUS45 KCYS 292110
RWRWY

WYOMING REGIONAL WEATHER ROUNDUP
NATIONAL WEATHER SERVICE CHEYENNE WY
300 PM MDT THU SEP 29 2016

NOTE:  "FAIR" INDICATES FEW OR NO CLOUDS BELOW 12,000 FEET
WITH NO SIGNIFICANT WEATHER AND/OR OBSTRUCTIONS TO VISIBILITY.

WYZ001-292200-
YELLOWSTONE NATIONAL PARK

CITY           SKY/WX    TMP DP  RH WIND       PRES   REMARKS
LK YELLOWSTONE   N/A     55  44  66 CALM      30.39F
W YELLOWSTONE  NOT AVBL

$$
WYZ002>013-054>058-071-098>099-292200-
NORTHERN WYOMING

CITY           SKY/WX    TMP DP  RH WIND       PRES   REMARKS
JACKSON        PTSUNNY   64  39  39 CALM      30.30F
CODY           FAIR      77  41  27 S9        30.18F
GREYBULL       FAIR      79  44  28 S13       30.12F
WORLAND        FAIR      78  45  30 S15       30.15F
SHERIDAN       FAIR      69  53  56 CALM      30.11F
BUFFALO        PTSUNNY   81  40  23 W12       30.18S
GILLETTE       FAIR      78  47  33 S18       30.15F
HULETT         FAIR      81  41  24 S15G22    30.19F
NEWCASTLE      FAIR      77  39  25 SE16G26   30.22F

$$
WYZ014>020-022>026-101>103-292200-
CENTRAL WYOMING

CITY           SKY/WX    TMP DP  RH WIND       PRES   REMARKS
BIG PINEY      FAIR      69  39  33 S15G22    30.32F
PINEDALE       MOCLDY    68  37  32 S12       30.34F
DUBOIS         MOCLDY    64  41  42 SE7       30.32F
LANDER         FAIR      73  46  38 SE18      30.22F
RIVERTON       FAIR      71  46  40 S18G26    30.24F
CASPER         FAIR      72  44  36 W17G26    30.28S
DOUGLAS        FAIR      77  41  27 S10       30.25S

$$
WYZ021-027>030-104>119-292200-
SOUTHERN WYOMING

CITY           SKY/WX    TMP DP  RH WIND       PRES   REMARKS
EVANSTON       PTSUNNY   68  37  32 SW17      30.33F
FORT BRIDGER   CLOUDY    70  38  30 SW9       30.36F
ROCK SPRINGS   PTSUNNY   63  47  55 S28       30.34F
DIXON          FAIR      62  46  55 W14G22    30.45S
RAWLINS        FAIR      63  46  54 SW17G26   30.41F
SARATOGA       MOCLDY    64  43  45 W17G26    30.41S
LARAMIE        FAIR      71  35  26 NE12      30.36F
CHEYENNE       FAIR      78  34  20 SE12      30.32F
TORRINGTON     FAIR      84  37  18 SE16G26   30.19F
PINE BLUFFS    FAIR      79  34  19 S9G20     30.28F

$$




USA.gov is the U.S. government's official web portal to all federal, state and local government web resources and services.